Location: Blériot-Plage
(50.9575°N, 1.8224°E)
Time: 11:06:13
(UTC+00:00)

Spot 2 Rocket - Pass Details

Date: 15 May 2026
Orbit: 752 x 765 km, 98.3° (Epoch: 5 June)

Event Time Altitude Azimuth Distance (km) Brightness Sun altitude
Exits shadow 21:03:00 - 183° (S) 2,648 5.9 -11.1°
Reaches altitude 10° 21:03:58 10° 186° (S) 2,273 5.5 -11.2°
Maximum altitude 21:08:49 48° 261° (W) 981 4.3 -11.7°
Drops below altitude 10° 21:13:42 10° 336° (NNW) 2,295 7.4 -12.2°
Sets 21:16:06 0° 342° (NNW) 3,227 8.3 -12.4°
